This demonstration page uses our WeatherBlox Daily Observations layout. Learn more.

Left ArrowRight Arrow

Hourly Observations for January 31, 2017

Temp ( °F °C ) Dew Point ( °F °C ) Humidity (%) Winds ( mph kmh ) Pressure ( in mb ) Visibility ( mi km ) Precip ( " mm )
12:15 am 00:15 Clear 35 1.7 23 -5 61 61 NW 5 7 30.09 1019 10 16 N/A
12:35 am 00:35 Clear 34 1.2 24 -4.7 65 65 NW 6 9 30.09 1019 10 16 N/A
12:55 am 00:55 Clear 35 1.6 23 -4.9 62 62 NW 5 7 30.06 1018 10 16 N/A
1:15 am 01:15 Clear 34 0.9 24 -4.7 67 67 NW 6 9 30.06 1018 10 16 N/A
1:35 am 01:35 Clear 34 0.9 24 -4.6 67 67 NW 5 7 30.06 1018 10 16 N/A
1:55 am 01:55 Clear 33 0.7 24 -4.5 69 69 NW 6 9 30.06 1018 10 16 N/A
2:15 am 02:15 Clear 33 0.3 24 -4.6 70 70 NW 5 7 30.06 1018 10 16 N/A
2:35 am 02:35 Clear 32 0.2 24 -4.6 70 70 NNW 6 9 30.06 1018 10 16 N/A
2:55 am 02:55 Clear 33 0.5 23 -5.1 66 66 NNW 6 9 30.06 1018 10 16 N/A
3:15 am 03:15 Clear 32 0.1 22 -5.4 67 67 NNW 6 9 30.06 1018 10 16 N/A
3:35 am 03:35 Clear 31 -0.5 22 -5.5 69 69 NW 6 9 30.06 1018 10 16 N/A
3:55 am 03:55 Clear 30 -1.1 22 -5.4 73 73 NW 6 9 30.09 1019 10 16 N/A
4:15 am 04:15 Clear 29 -1.4 22 -5.6 73 73 WNW 5 7 30.09 1019 10 16 N/A
4:35 am 04:35 Clear 29 -1.5 22 -5.7 73 73 NW 6 9 30.09 1019 10 16 N/A
4:55 am 04:55 Clear 31 -0.5 22 -5.7 68 68 NW 6 9 30.06 1018 10 16 N/A
5:15 am 05:15 Clear 30 -1 22 -5.5 72 72 NW 7 11 30.09 1019 10 16 N/A
5:35 am 05:35 Clear 31 -0.5 23 -5.1 71 71 NW 5 7 30.06 1018 10 16 N/A
5:55 am 05:55 Clear 31 -0.5 24 -4.6 74 74 NW 6 9 30.12 1020 10 16 N/A
6:15 am 06:15 Mostly Cloudy 32 undefined 25 -4.1 74 74 NNW 6 9 30.09 1019 10 16 N/A
6:35 am 06:35 Cloudy 32 undefined 26 -3.5 78 78 NW 7 11 30.09 1019 10 16 N/A
6:55 am 06:55 Cloudy 32 0.1 26 -3.6 76 76 N 6 9 30.06 1018 10 16 N/A
7:15 am 07:15 Cloudy 32 0.1 25 -3.8 75 75 N N/A 30.06 1018 10 16 N/A
7:35 am 07:35 Cloudy 32 undefined 26 -3.6 77 77 NW 6 9 30.06 1018 10 16 N/A
7:55 am 07:55 Cloudy 32 0.1 26 -3.6 76 76 NNW 5 7 30.06 1018 10 16 N/A
8:15 am 08:15 Cloudy 32 0.1 26 -3.3 78 78 NNW 6 9 30.09 1019 10 16 N/A
8:35 am 08:35 Mostly Cloudy 33 0.3 26 -3.3 77 77 NNW 3 6 30.09 1019 10 16 N/A
8:55 am 08:55 Cloudy 33 0.5 27 -3 78 78 N 3 6 30.09 1019 10 16 N/A
9:15 am 09:15 Cloudy 34 1.1 27 -2.7 76 76 N 6 9 30.09 1019 10 16 N/A
9:35 am 09:35 Cloudy 35 1.7 27 -2.6 73 73 N 7 11 30.09 1019 10 16 N/A
9:55 am 09:55 Cloudy 36 2.1 27 -3 69 69 N N/A 30.09 1019 10 16 N/A
10:15 am 10:15 Mostly Cloudy 37 3 27 -2.7 67 67 N 3 6 30.06 1018 10 16 N/A
10:35 am 10:35 Partly Cloudy 39 3.9 27 -2.6 63 63 N 6 9 30.06 1018 10 16 N/A
10:55 am 10:55 Sunny 40 4.7 27 -2.8 59 59 NNE 8 13 30.06 1018 10 16 N/A
11:15 am 11:15 Sunny 41 4.9 27 -2.9 57 57 NNE 6 9 30.06 1018 10 16 N/A
11:35 am 11:35 Sunny 41 5.1 26 -3.3 55 55 N N/A 30.06 1018 10 16 N/A
11:55 am 11:55 Sunny 41 5.1 26 -3.5 54 54 N N/A 30.06 1018 10 16 N/A
12:15 pm 12:15 Sunny 42 5.4 24 -4.2 50 50 NE 3 6 30.03 1017 10 16 N/A
12:35 pm 12:35 Sunny 44 6.6 22 -5.3 43 43 E 7 11 30.00 1016 10 16 N/A
12:55 pm 12:55 Partly Cloudy 43 6.3 22 -5.5 43 43 E 3 6 30.00 1016 10 16 N/A
1:15 pm 13:15 Partly Cloudy 43 6.2 21 -5.9 42 42 ENE 7 11 29.97 1015 10 16 N/A
1:35 pm 13:35 Sunny 43 6.3 22 -5.8 42 42 E 7 11 29.97 1015 10 16 N/A
1:55 pm 13:55 Sunny 43 6 22 -5.5 44 44 E 6 9 29.97 1015 10 16 N/A
2:15 pm 14:15 Sunny 44 6.5 22 -5.4 43 43 E 7 11 29.97 1015 10 16 N/A
2:35 pm 14:35 Sunny 45 7 22 -5.6 41 41 E 8 13 29.94 1014 10 16 N/A
2:55 pm 14:55 Sunny 45 7 22 -5.5 41 41 E 13 20 29.94 1014 10 16 N/A
3:15 pm 15:15 Sunny 45 7.1 22 -5.7 40 40 E 12 19 29.94 1014 10 16 N/A
3:35 pm 15:35 Sunny 45 7.1 21 -6.1 39 39 E 10 17 29.94 1014 10 16 N/A
3:55 pm 15:55 Sunny 45 7.1 22 -5.6 40 40 E 12 19 29.94 1014 10 16 N/A
4:15 pm 16:15 Sunny 44 6.7 22 -5.5 42 42 ENE 9 15 29.97 1015 10 16 N/A
4:35 pm 16:35 Sunny 44 6.6 21 -6.1 40 40 E 12 19 29.94 1014 10 16 N/A
4:55 pm 16:55 Sunny 43 6.3 21 -6.1 41 41 E 9 15 29.94 1014 10 16 N/A
5:15 pm 17:15 Sunny 44 6.4 24 -4.4 46 46 ENE 10 17 29.94 1014 10 16 N/A
5:35 pm 17:35 Sunny 41 4.8 25 -3.7 54 54 ENE 9 15 29.97 1015 10 16 N/A
6:15 pm 18:15 Clear 38 3.1 26 -3.1 64 64 ENE 7 11 30.00 1016 10 16 N/A
6:35 pm 18:35 Clear 37 2.5 26 -3.1 67 67 ENE 7 11 30.00 1016 10 16 N/A
6:55 pm 18:55 Clear 36 2.3 26 -3.2 67 67 ENE 9 15 30.06 1018 10 16 N/A
7:15 pm 19:15 Clear 36 2.1 26 -3.1 69 69 NE 8 13 30.06 1018 10 16 N/A
7:35 pm 19:35 Clear 35 1.9 26 -3.1 70 70 ENE 8 13 30.09 1019 10 16 N/A
7:55 pm 19:55 Clear 35 1.6 27 -3 72 72 ENE 9 15 30.09 1019 10 16 N/A
8:15 pm 20:15 Clear 35 1.5 27 -3 72 72 ENE 12 19 30.09 1019 10 16 N/A
8:35 pm 20:35 Clear 34 1.2 27 -2.9 74 74 ENE 9 15 30.09 1019 10 16 N/A
8:55 pm 20:55 Clear 34 1 26 -3.1 74 74 ENE 10 17 30.09 1019 10 16 N/A
9:15 pm 21:15 Clear 33 0.7 26 -3.6 73 73 ENE 10 17 30.09 1019 10 16 N/A
9:35 pm 21:35 Clear 33 0.6 25 -4.1 71 71 ENE 10 17 30.09 1019 10 16 N/A
9:55 pm 21:55 Clear 33 0.5 25 -4 72 72 NE 12 19 30.12 1020 10 16 N/A
10:15 pm 22:15 Clear 33 0.4 25 -4 73 73 NE 14 22 30.12 1020 10 16 N/A
10:35 pm 22:35 Clear 32 0.2 25 -3.9 74 74 NE 13 20 30.12 1020 10 16 N/A
10:55 pm 22:55 Clear 32 0.1 25 -3.7 76 76 NE 13 20 30.12 1020 10 16 N/A
11:15 pm 23:15 Clear 32 undefined 26 -3.5 78 78 NE 13 20 30.18 1022 10 16 N/A
11:35 pm 23:35 Clear 32 undefined 26 -3.3 79 79 NE 12 19 30.21 1023 10 16 N/A
11:55 pm 23:55 Clear 32 undefined 26 -3.1 80 80 NE 12 19 30.18 1022 10 16 N/A

Powered by AerisWeather